User: anonymous   Login
Location: Unspecified
(0.0000°N, 0.0000°E)
Time: 05:25:41
(UTC+00:00)
Language:

KORONAS-FOTON - Orbit

View from above orbital plane
View from above orbital plane
View from above satellite
View from above satellite

Ground track
Ground track

The orbit data is extracted from the following two-line orbital elements,

1 33504U 09003A   18319.83829190  .00000272  00000-0  12675-4 0  9995
2 33504  82.4427  79.3821 0020611 121.7951 238.5292 15.15281817539704
Epoch (UTC): 15 November 2018 20:07:08
Eccentricity: 0.0020611
inclination: 82.4427°
perigee height: 506 km
apogee height: 534 km
right ascension of ascending node: 79.3821°
argument of perigee: 121.7951°
revolutions per day: 15.15281817
mean anomaly at epoch: 238.5292°
orbit number at epoch: 53970

The dashed part of the orbit path shows where the satellite is in the earth's shadow,  

DLR